Find Starlink 34512

NORAD ID: 64419 Int'l Des: 2025-129 Owner: SPXS Country: US Constellation: starlink operational
LEOCIRCULAR

現在のビュー

3D地球を読み込み中...

Starlink 34512について

説明を読み込み中...

次回通過

Passes for default location (London). Set your location on the main map for personalized predictions.

高度履歴

Loading altitude history...

軌道要素

1 64419U 25129H 26149.52852902 .00001910 00000-0 16783-3 0 9997
2 64419 70.0015 230.7275 0003517 268.8358 91.2398 14.98335968 53333
Epoch: May 29, 2026 • Age: 19 hours

現在のステータス

高度 582.9 km
速度 7.57 km/s
衛星直下点 -34.05°S, 149.52°W
打ち上げ日 Jun 17, 2025
運用期間 0.9 years
タイプ internet

技術仕様

分類 Payload
質量 575.00 kg
乾燥質量 530.00 kg
総質量 575.00 kg
長さ 0.30 m
直径 4.10 m
スパン 29.00 m
形状 Box + pan
製造者 SPXS
バスタイプ Starlink V2MO
フェーズステータス In Orbit
所有者/国 SPXS/US

Most Searched